Location: CNYAC Observatory
(43.2150°N, 74.9500°W)
Time: 17:47:45
(UTC-04:00)

Cosmos 1975 Rocket - Visible Passes

Search period start: 23 April 2017 00:00
Search period end: 03 May 2017 00:00
Orbit: 605 x 633 km, 82.5° (Epoch: 22 April)

Date Brightness Start Highest point End Pass type
(mag) Time Alt. Az. Time Alt. Az. Time Alt. Az.
23 Apr 5.5 01:18:10 19° NNW 01:18:10 19° NNW 01:19:47 10° NNW visible
23 Apr 5.3 23:58:05 21° NNE 23:58:05 21° NNE 23:59:39 10° NNE visible
24 Apr 5.7 01:35:14 14° NW 01:35:14 14° NW 01:36:22 10° NNW visible
25 Apr 5.1 00:15:09 26° N 00:15:09 26° N 00:17:10 10° N visible
25 Apr 5.7 22:55:03 11° NE 22:55:03 11° NE 22:55:17 10° NE visible
26 Apr 5.0 00:32:11 27° NNW 00:32:11 27° NNW 00:34:26 10° N visible
26 Apr 5.2 23:12:04 18° NE 23:12:04 18° NE 23:13:35 10° NNE visible
27 Apr 5.3 00:49:12 22° NW 00:49:12 22° NW 00:51:25 10° NNW visible
27 Apr 4.7 23:29:05 28° NNE 23:29:05 28° NNE 23:31:21 10° NNE visible
28 Apr 5.6 01:06:13 15° NW 01:06:13 15° NW 01:07:57 10° NNW visible
28 Apr 4.4 23:46:04 37° N 23:46:04 37° N 23:48:50 10° N visible
29 Apr 5.3 22:25:54 14° ENE 22:25:54 14° ENE 22:27:06 10° NE visible
30 Apr 4.5 00:03:02 36° NNW 00:03:02 36° NNW 00:06:05 10° N visible
30 Apr 4.6 22:42:51 24° ENE 22:42:51 24° ENE 22:45:18 10° NNE visible
01 May 5.0 00:19:59 25° WNW 00:19:59 25° WNW 00:23:02 10° NNW visible
01 May 3.9 22:59:48 41° NE 22:59:48 41° NE 23:03:03 10° NNE visible
02 May 5.5 00:36:55 15° WNW 00:36:55 15° WNW 00:39:30 10° NNW visible
02 May 3.4 23:16:41 63° N 23:16:41 63° N 23:20:30 10° N visible
